TimePDT,TemperatureF,Dew PointF,Humidity,Sea Level PressureIn,VisibilityMPH,Wind Direction,Wind SpeedMPH,Gust SpeedMPH,PrecipitationIn,Events,Conditions,WindDirDegrees,DateUTC
12:53 AM,59.0,54.0,83,29.86,10.0,Calm,Calm,-,N/A,,Clear,0,2012-10-03 07:53:00
1:53 AM,57.9,53.1,84,29.86,10.0,Calm,Calm,-,N/A,,Clear,0,2012-10-03 08:53:00
2:53 AM,55.9,51.1,84,29.85,10.0,Calm,Calm,-,N/A,,Clear,0,2012-10-03 09:53:00
3:53 AM,55.9,48.0,75,29.85,10.0,NW,4.6,-,N/A,,Clear,320,2012-10-03 10:53:00
4:53 AM,55.0,48.9,80,29.86,10.0,Calm,Calm,-,N/A,,Clear,0,2012-10-03 11:53:00
5:53 AM,54.0,48.0,80,29.86,10.0,Calm,Calm,-,N/A,,Clear,0,2012-10-03 12:53:00
6:53 AM,54.0,48.0,80,29.88,10.0,North,3.5,-,N/A,,Clear,350,2012-10-03 13:53:00
7:53 AM,55.9,48.0,75,29.89,10.0,Calm,Calm,-,N/A,,Clear,0,2012-10-03 14:53:00
8:53 AM,63.0,48.0,58,29.91,10.0,Calm,Calm,-,N/A,,Clear,0,2012-10-03 15:53:00
9:53 AM,70.0,55.0,59,29.92,10.0,South,4.6,-,N/A,,Clear,190,2012-10-03 16:53:00
10:53 AM,70.0,55.9,61,29.94,9.0,WSW,10.4,-,N/A,,Clear,250,2012-10-03 17:53:00
11:43 AM,64.4,57.2,77,29.95,10.0,Calm,Calm,-,N/A,,Mostly Cloudy,0,2012-10-03 18:43:00
11:53 AM,64.9,57.0,75,29.95,10.0,North,-9999.0,-,N/A,,Mostly Cloudy,0,2012-10-03 18:53:00
12:53 PM,62.1,57.9,86,29.96,8.0,WSW,9.2,17.3,N/A,,Overcast,250,2012-10-03 19:53:00
1:53 PM,62.1,57.0,84,29.96,9.0,Variable,6.9,-,N/A,,Overcast,0,2012-10-03 20:53:00
2:29 PM,62.6,57.2,82,29.96,9.0,WSW,8.1,-,N/A,,Overcast,250,2012-10-03 21:29:00
2:53 PM,62.1,57.0,84,29.96,10.0,WSW,9.2,-,N/A,,Overcast,240,2012-10-03 21:53:00
3:53 PM,62.1,55.9,80,29.96,9.0,WSW,11.5,-,N/A,,Overcast,240,2012-10-03 22:53:00
4:53 PM,61.0,55.9,83,29.96,10.0,WSW,9.2,-,N/A,,Overcast,250,2012-10-03 23:53:00
5:53 PM,60.1,55.9,86,29.97,9.0,SW,9.2,-,N/A,,Overcast,220,2012-10-04 00:53:00
6:53 PM,60.1,55.0,83,29.98,10.0,West,6.9,-,N/A,,Overcast,260,2012-10-04 01:53:00
7:09 PM,60.8,55.4,82,29.98,10.0,West,8.1,-,N/A,,Overcast,270,2012-10-04 02:09:00
7:53 PM,60.1,55.0,83,30.00,10.0,West,5.8,-,N/A,,Overcast,260,2012-10-04 02:53:00
8:53 PM,60.1,55.0,83,30.01,10.0,Calm,Calm,-,N/A,,Overcast,0,2012-10-04 03:53:00
9:53 PM,60.1,55.0,83,30.02,10.0,WSW,3.5,-,N/A,,Overcast,250,2012-10-04 04:53:00
10:53 PM,60.1,55.0,83,30.03,10.0,WSW,4.6,-,N/A,,Overcast,250,2012-10-04 05:53:00
11:53 PM,60.1,55.0,83,30.04,10.0,WSW,4.6,-,N/A,,Overcast,250,2012-10-04 06:53:00